Wetterdaten: Montag, 07.12.2020
Datum Zeit Temp. I. Temp. A. Boden 5 cm Feuchte A. Sonne Luftdruck Regen Wind Zeit Regen
07.12.2020 00:00 23,0 C 2,2 C 1,6 C 85 % 19 % 993 hPa 0,0 l/m 3,6 km/h (1 Bft) 0 min
07.12.2020 00:30 23,0 C 2,2 C 1,5 C 85 % 19 % 993 hPa 0,0 l/m 6,5 km/h (2 Bft) 0 min
07.12.2020 00:33 23,0 C 2,2 C 1,4 C 85 % 19 % 993 hPa 0,0 l/m 5,2 km/h (1 Bft) 0 min
07.12.2020 00:36 22,9 C 2,2 C 1,6 C 85 % 19 % 993 hPa 0,0 l/m 7,1 km/h (2 Bft) 0 min
07.12.2020 00:39 23,0 C 2,2 C 1,4 C 85 % 19 % 993 hPa 0,0 l/m 7,6 km/h (2 Bft) 0 min
07.12.2020 00:42 22,9 C 2,2 C 1,6 C 85 % 19 % 993 hPa 0,0 l/m 5,0 km/h (1 Bft) 0 min
07.12.2020 00:45 22,9 C 2,2 C 1,4 C 85 % 19 % 993 hPa 0,0 l/m 3,4 km/h (1 Bft) 0 min
07.12.2020 00:48 22,9 C 2,2 C 1,6 C 85 % 19 % 993 hPa 0,0 l/m 0,3 km/h (0 Bft) 0 min
07.12.2020 00:51 22,9 C 2,2 C 1,5 C 85 % 19 % 993 hPa 0,0 l/m 0,6 km/h (0 Bft) 0 min
07.12.2020 00:54 22,9 C 2,2 C 1,4 C 85 % 19 % 993 hPa 0,0 l/m 0,2 km/h (0 Bft) 0 min
07.12.2020 00:57 22,9 C 2,1 C 1,4 C 85 % 19 % 993 hPa 0,0 l/m 0,2 km/h (0 Bft) 0 min
07.12.2020 01:00 22,9 C 2,2 C 1,5 C 85 % 19 % 993 hPa 0,0 l/m 0,6 km/h (0 Bft) 0 min
07.12.2020 01:03 22,9 C 2,1 C 1,5 C 85 % 19 % 993 hPa 0,0 l/m 2,7 km/h (1 Bft) 0 min
07.12.2020 01:06 22,9 C 2,1 C 1,5 C 85 % 19 % 993 hPa 0,0 l/m 0,1 km/h (0 Bft) 0 min
07.12.2020 01:09 22,9 C 2,1 C 1,5 C 85 % 19 % 993 hPa 0,0 l/m 3,7 km/h (1 Bft) 0 min
07.12.2020 01:12 22,8 C 2,1 C 1,4 C 85 % 19 % 993 hPa 0,0 l/m 3,7 km/h (1 Bft) 0 min
07.12.2020 01:15 22,9 C 2,1 C 1,3 C 85 % 19 % 993 hPa 0,0 l/m 0,1 km/h (0 Bft) 0 min
07.12.2020 01:18 22,8 C 2,0 C 1,3 C 85 % 19 % 993 hPa 0,0 l/m 2,7 km/h (1 Bft) 0 min
07.12.2020 01:21 22,8 C 2,0 C 1,4 C 85 % 19 % 993 hPa 0,0 l/m 0,1 km/h (0 Bft) 0 min
07.12.2020 01:24 22,8 C 2,0 C 1,5 C 85 % 19 % 993 hPa 0,0 l/m 0,0 km/h (0 Bft) 0 min
07.12.2020 01:27 22,8 C 2,0 C 1,4 C 85 % 19 % 993 hPa 0,0 l/m 0,0 km/h (0 Bft) 0 min
07.12.2020 01:30 22,8 C 2,0 C 1,4 C 85 % 19 % 993 hPa 0,0 l/m 0,0 km/h (0 Bft) 0 min
07.12.2020 01:33 22,8 C 2,0 C 1,4 C 85 % 19 % 993 hPa 0,0 l/m 0,3 km/h (0 Bft) 0 min
07.12.2020 01:36 22,8 C 2,0 C 1,4 C 85 % 19 % 993 hPa 0,0 l/m 0,3 km/h (0 Bft) 0 min
07.12.2020 01:39 22,8 C 2,0 C 1,4 C 85 % 19 % 993 hPa 0,0 l/m 0,0 km/h (0 Bft) 0 min
07.12.2020 01:42 22,8 C 2,0 C 1,3 C 85 % 19 % 993 hPa 0,0 l/m 0,0 km/h (0 Bft) 0 min
07.12.2020 01:45 22,8 C 2,0 C 1,4 C 85 % 19 % 993 hPa 0,0 l/m 0,0 km/h (0 Bft) 0 min
07.12.2020 01:48 22,8 C 2,0 C 1,4 C 85 % 19 % 993 hPa 0,0 l/m 0,1 km/h (0 Bft) 0 min
07.12.2020 01:51 22,8 C 2,0 C 1,4 C 85 % 19 % 993 hPa 0,0 l/m 2,1 km/h (1 Bft) 0 min
07.12.2020 01:54 22,8 C 2,0 C 1,4 C 85 % 19 % 993 hPa 0,0 l/m 0,4 km/h (0 Bft) 0 min
07.12.2020 01:57 22,8 C 2,1 C 1,4 C 85 % 19 % 993 hPa 0,0 l/m 0,0 km/h (0 Bft) 0 min
07.12.2020 02:00 22,8 C 2,0 C 1,4 C 85 % 19 % 993 hPa 0,0 l/m 0,3 km/h (0 Bft) 0 min
07.12.2020 02:03 22,8 C 2,1 C 1,4 C 85 % 19 % 993 hPa 0,0 l/m 0,2 km/h (0 Bft) 0 min
07.12.2020 02:06 22,8 C 2,1 C 1,3 C 85 % 19 % 993 hPa 0,0 l/m 0,0 km/h (0 Bft) 0 min
07.12.2020 02:09 22,8 C 2,0 C 1,4 C 85 % 19 % 993 hPa 0,0 l/m 0,0 km/h (0 Bft) 0 min
07.12.2020 02:12 22,8 C 2,0 C 1,4 C 85 % 19 % 993 hPa 0,0 l/m 0,0 km/h (0 Bft) 0 min
07.12.2020 02:15 22,8 C 2,0 C 1,3 C 85 % 19 % 993 hPa 0,0 l/m 0,0 km/h (0 Bft) 0 min
07.12.2020 02:18 22,7 C 1,9 C 1,4 C 85 % 19 % 994 hPa 0,0 l/m 0,0 km/h (0 Bft) 0 min
07.12.2020 02:21 22,7 C 2,0 C 1,4 C 85 % 19 % 994 hPa 0,0 l/m 0,0 km/h (0 Bft) 0 min
07.12.2020 02:24 22,7 C 2,0 C 1,4 C 85 % 19 % 994 hPa 0,0 l/m 0,1 km/h (0 Bft) 0 min
07.12.2020 02:27 22,7 C 2,0 C 1,3 C 85 % 19 % 994 hPa 0,0 l/m 0,1 km/h (0 Bft) 0 min
07.12.2020 02:30 22,7 C 2,0 C 1,3 C 85 % 19 % 994 hPa 0,0 l/m 0,1 km/h (0 Bft) 0 min
07.12.2020 02:33 22,7 C 2,0 C 1,4 C 85 % 19 % 994 hPa 0,0 l/m 0,0 km/h (0 Bft) 0 min
07.12.2020 02:36 22,7 C 2,0 C 1,4 C 84 % 19 % 994 hPa 0,0 l/m 0,0 km/h (0 Bft) 0 min
07.12.2020 02:39 22,7 C 2,0 C 1,5 C 84 % 19 % 994 hPa 0,0 l/m 1,8 km/h (1 Bft) 0 min
07.12.2020 02:42 22,7 C 2,0 C 1,5 C 84 % 19 % 994 hPa 0,0 l/m 0,0 km/h (0 Bft) 0 min
07.12.2020 02:45 22,7 C 2,0 C 1,5 C 84 % 19 % 994 hPa 0,0 l/m 0,0 km/h (0 Bft) 0 min
07.12.2020 02:48 22,7 C 2,0 C 1,4 C 84 % 19 % 994 hPa 0,0 l/m 1,1 km/h (1 Bft) 0 min
07.12.2020 02:51 22,7 C 2,0 C 1,4 C 84 % 19 % 994 hPa 0,0 l/m 0,0 km/h (0 Bft) 0 min
07.12.2020 02:54 22,7 C 2,0 C 1,5 C 84 % 19 % 994 hPa 0,0 l/m 0,0 km/h (0 Bft) 0 min
07.12.2020 02:57 22,7 C 2,0 C 1,4 C 84 % 19 % 994 hPa 0,0 l/m 0,0 km/h (0 Bft) 0 min
07.12.2020 03:00 22,6 C 2,0 C 1,3 C 84 % 19 % 994 hPa 0,0 l/m 0,0 km/h (0 Bft) 0 min
07.12.2020 03:03 22,7 C 2,0 C 1,4 C 84 % 19 % 994 hPa 0,0 l/m 1,3 km/h (1 Bft) 0 min
07.12.2020 03:06 22,6 C 2,0 C 1,4 C 84 % 19 % 994 hPa 0,0 l/m 3,0 km/h (1 Bft) 0 min
07.12.2020 03:09 22,6 C 2,0 C 1,4 C 84 % 19 % 994 hPa 0,0 l/m 0,0 km/h (0 Bft) 0 min
07.12.2020 03:12 22,6 C 2,0 C 1,4 C 84 % 19 % 994 hPa 0,0 l/m 0,0 km/h (0 Bft) 0 min
07.12.2020 03:15 22,6 C 2,0 C 1,4 C 84 % 19 % 994 hPa 0,0 l/m 0,0 km/h (0 Bft) 0 min
07.12.2020 03:18 22,6 C 2,0 C 1,5 C 84 % 19 % 994 hPa 0,0 l/m 0,0 km/h (0 Bft) 0 min
07.12.2020 03:21 22,6 C 2,0 C 1,4 C 84 % 19 % 994 hPa 0,0 l/m 0,0 km/h (0 Bft) 0 min
07.12.2020 03:24 22,6 C 2,0 C 1,5 C 84 % 19 % 994 hPa 0,0 l/m 0,0 km/h (0 Bft) 0 min
07.12.2020 03:27 22,6 C 2,0 C 1,4 C 84 % 19 % 994 hPa 0,0 l/m 0,0 km/h (0 Bft) 0 min
07.12.2020 03:30 22,6 C 1,9 C 1,3 C 84 % 19 % 994 hPa 0,0 l/m 0,0 km/h (0 Bft) 0 min
07.12.2020 03:33 22,6 C 1,9 C 1,4 C 84 % 19 % 994 hPa 0,0 l/m 0,0 km/h (0 Bft) 0 min
07.12.2020 03:36 22,6 C 1,9 C 1,3 C 84 % 19 % 994 hPa 0,0 l/m 0,7 km/h (0 Bft) 0 min
07.12.2020 03:39 22,6 C 1,9 C 1,4 C 84 % 19 % 994 hPa 0,0 l/m 2,2 km/h (1 Bft) 0 min
07.12.2020 03:42 22,6 C 2,0 C 1,4 C 84 % 19 % 994 hPa 0,0 l/m 0,0 km/h (0 Bft) 0 min
07.12.2020 03:45 22,6 C 2,0 C 1,4 C 84 % 19 % 994 hPa 0,0 l/m 0,0 km/h (0 Bft) 0 min
07.12.2020 03:48 22,6 C 1,9 C 1,4 C 84 % 19 % 994 hPa 0,0 l/m 0,0 km/h (0 Bft) 0 min
07.12.2020 03:51 22,6 C 1,9 C 1,4 C 84 % 19 % 995 hPa 0,0 l/m 1,1 km/h (1 Bft) 0 min
07.12.2020 03:54 22,6 C 1,9 C 1,4 C 84 % 19 % 995 hPa 0,0 l/m 1,3 km/h (1 Bft) 0 min
07.12.2020 03:57 22,6 C 1,9 C 1,4 C 84 % 19 % 995 hPa 0,0 l/m 0,0 km/h (0 Bft) 0 min
07.12.2020 04:00 22,6 C 1,9 C 1,4 C 84 % 19 % 995 hPa 0,0 l/m 0,1 km/h (0 Bft) 0 min
07.12.2020 04:03 22,6 C 1,9 C 1,4 C 84 % 19 % 995 hPa 0,0 l/m 0,0 km/h (0 Bft) 0 min
07.12.2020 04:06 22,6 C 1,9 C 1,5 C 84 % 19 % 995 hPa 0,0 l/m 0,0 km/h (0 Bft) 0 min
07.12.2020 04:09 22,6 C 1,9 C 1,5 C 84 % 19 % 995 hPa 0,0 l/m 0,0 km/h (0 Bft) 0 min
07.12.2020 04:12 22,6 C 1,9 C 1,5 C 84 % 19 % 995 hPa 0,0 l/m 0,0 km/h (0 Bft) 0 min
07.12.2020 04:15 22,6 C 1,9 C 1,5 C 84 % 19 % 995 hPa 0,0 l/m 0,0 km/h (0 Bft) 0 min
07.12.2020 04:18 22,6 C 1,9 C 1,4 C 84 % 19 % 995 hPa 0,0 l/m 0,0 km/h (0 Bft) 0 min
07.12.2020 04:21 22,6 C 1,9 C 1,4 C 84 % 19 % 995 hPa 0,0 l/m 0,0 km/h (0 Bft) 0 min
07.12.2020 04:24 22,5 C 1,9 C 1,4 C 84 % 19 % 995 hPa 0,0 l/m 0,0 km/h (0 Bft) 0 min
07.12.2020 04:27 22,6 C 1,9 C 1,5 C 84 % 19 % 995 hPa 0,0 l/m 0,0 km/h (0 Bft) 0 min
07.12.2020 04:30 22,6 C 1,9 C 1,3 C 84 % 19 % 995 hPa 0,0 l/m 0,0 km/h (0 Bft) 0 min
07.12.2020 04:33 22,5 C 1,9 C 1,2 C 84 % 19 % 995 hPa 0,0 l/m 0,0 km/h (0 Bft) 0 min
07.12.2020 04:36 22,5 C 1,9 C 1,4 C 84 % 19 % 995 hPa 0,0 l/m 0,0 km/h (0 Bft) 0 min
07.12.2020 04:39 22,5 C 2,0 C 1,4 C 84 % 19 % 995 hPa 0,0 l/m 0,0 km/h (0 Bft) 0 min
07.12.2020 04:42 22,5 C 2,0 C 1,4 C 84 % 19 % 995 hPa 0,0 l/m 0,0 km/h (0 Bft) 0 min
07.12.2020 04:45 22,5 C 2,0 C 1,4 C 84 % 19 % 995 hPa 0,0 l/m 0,0 km/h (0 Bft) 0 min
07.12.2020 04:48 22,5 C 2,0 C 1,2 C 84 % 19 % 995 hPa 0,0 l/m 0,0 km/h (0 Bft) 0 min
07.12.2020 04:51 22,5 C 2,0 C 1,2 C 84 % 19 % 995 hPa 0,0 l/m 0,0 km/h (0 Bft) 0 min
07.12.2020 04:54 22,5 C 2,0 C 1,2 C 84 % 19 % 995 hPa 0,0 l/m 0,0 km/h (0 Bft) 0 min
07.12.2020 04:57 22,5 C 2,0 C 1,3 C 84 % 19 % 995 hPa 0,0 l/m 0,0 km/h (0 Bft) 0 min
07.12.2020 05:00 22,5 C 2,0 C 1,3 C 84 % 19 % 995 hPa 0,0 l/m 0,0 km/h (0 Bft) 0 min
07.12.2020 05:03 22,5 C 2,0 C 1,4 C 84 % 19 % 995 hPa 0,0 l/m 0,0 km/h (0 Bft) 0 min
07.12.2020 05:06 22,5 C 2,0 C 1,4 C 84 % 19 % 995 hPa 0,0 l/m 0,0 km/h (0 Bft) 0 min
07.12.2020 05:09 22,5 C 2,0 C 1,4 C 84 % 19 % 995 hPa 0,0 l/m 0,0 km/h (0 Bft) 0 min
07.12.2020 05:12 22,5 C 2,0 C 1,4 C 84 % 19 % 995 hPa 0,0 l/m 0,0 km/h (0 Bft) 0 min
07.12.2020 05:15 22,5 C 2,0 C 1,4 C 84 % 19 % 996 hPa 0,0 l/m 0,0 km/h (0 Bft) 0 min
07.12.2020 05:18 22,5 C 2,0 C 1,4 C 84 % 19 % 996 hPa 0,0 l/m 0,0 km/h (0 Bft) 0 min
07.12.2020 05:21 22,5 C 2,0 C 1,4 C 84 % 19 % 996 hPa 0,0 l/m 0,0 km/h (0 Bft) 0 min
07.12.2020 05:24 22,5 C 2,0 C 1,4 C 84 % 19 % 996 hPa 0,0 l/m 0,0 km/h (0 Bft) 0 min
07.12.2020 05:27 22,5 C 2,0 C 1,4 C 84 % 19 % 996 hPa 0,0 l/m 0,0 km/h (0 Bft) 0 min
07.12.2020 05:30 22,5 C 2,1 C 1,4 C 84 % 19 % 996 hPa 0,0 l/m 0,0 km/h (0 Bft) 0 min
07.12.2020 05:33 22,5 C 2,1 C 1,4 C 84 % 19 % 996 hPa 0,0 l/m 0,0 km/h (0 Bft) 0 min
07.12.2020 05:36 22,5 C 2,1 C 1,4 C 84 % 19 % 996 hPa 0,0 l/m 0,0 km/h (0 Bft) 0 min
07.12.2020 05:39 22,5 C 2,1 C 1,4 C 84 % 19 % 996 hPa 0,0 l/m 0,0 km/h (0 Bft) 0 min
07.12.2020 05:42 22,5 C 2,1 C 1,4 C 84 % 19 % 996 hPa 0,0 l/m 0,0 km/h (0 Bft) 0 min
07.12.2020 05:45 22,4 C 2,1 C 1,3 C 84 % 19 % 996 hPa 0,0 l/m 2,2 km/h (1 Bft) 0 min
07.12.2020 05:48 22,4 C 2,1 C 1,3 C 84 % 19 % 996 hPa 0,0 l/m 0,0 km/h (0 Bft) 0 min
07.12.2020 05:51 22,5 C 2,1 C 1,3 C 84 % 19 % 996 hPa 0,0 l/m 0,0 km/h (0 Bft) 0 min
07.12.2020 05:54 22,5 C 2,1 C 1,4 C 84 % 19 % 996 hPa 0,0 l/m 0,0 km/h (0 Bft) 0 min
07.12.2020 05:57 22,4 C 2,1 C 1,4 C 84 % 19 % 996 hPa 0,0 l/m 0,0 km/h (0 Bft) 0 min
07.12.2020 06:00 22,4 C 2,1 C 1,5 C 84 % 19 % 997 hPa 0,0 l/m 0,0 km/h (0 Bft) 0 min
07.12.2020 06:03 22,4 C 2,1 C 1,4 C 84 % 19 % 997 hPa 0,0 l/m 0,0 km/h (0 Bft) 0 min
07.12.2020 06:06 22,4 C 2,2 C 1,4 C 84 % 19 % 997 hPa 0,0 l/m 0,0 km/h (0 Bft) 0 min
07.12.2020 06:09 22,4 C 2,3 C 1,4 C 84 % 19 % 997 hPa 0,0 l/m 0,0 km/h (0 Bft) 0 min
07.12.2020 06:12 22,4 C 2,3 C 1,4 C 84 % 19 % 997 hPa 0,0 l/m 0,0 km/h (0 Bft) 0 min
07.12.2020 06:15 22,4 C 2,3 C 1,4 C 84 % 19 % 997 hPa 0,0 l/m 0,0 km/h (0 Bft) 0 min
07.12.2020 06:18 22,4 C 2,3 C 1,4 C 84 % 19 % 997 hPa 0,0 l/m 0,0 km/h (0 Bft) 0 min
07.12.2020 06:21 22,4 C 2,3 C 1,4 C 84 % 19 % 997 hPa 0,0 l/m 0,0 km/h (0 Bft) 0 min
07.12.2020 06:24 22,4 C 2,3 C 1,4 C 84 % 19 % 997 hPa 0,0 l/m 0,0 km/h (0 Bft) 0 min
07.12.2020 06:27 22,4 C 2,3 C 1,4 C 84 % 19 % 997 hPa 0,0 l/m 0,0 km/h (0 Bft) 0 min
07.12.2020 06:30 22,4 C 2,3 C 1,4 C 84 % 19 % 997 hPa 0,0 l/m 0,0 km/h (0 Bft) 0 min
07.12.2020 06:33 22,4 C 2,3 C 1,4 C 84 % 19 % 997 hPa 0,0 l/m 0,0 km/h (0 Bft) 0 min
07.12.2020 06:36 22,4 C 2,3 C 1,5 C 84 % 19 % 997 hPa 0,0 l/m 0,0 km/h (0 Bft) 0 min
07.12.2020 06:39 22,4 C 2,3 C 1,4 C 84 % 19 % 997 hPa 0,0 l/m 0,0 km/h (0 Bft) 0 min
07.12.2020 06:42 22,4 C 2,3 C 1,3 C 84 % 19 % 997 hPa 0,0 l/m 0,0 km/h (0 Bft) 0 min
07.12.2020 06:45 22,4 C 2,2 C 1,4 C 84 % 19 % 997 hPa 0,0 l/m 0,0 km/h (0 Bft) 0 min
07.12.2020 06:48 22,4 C 2,2 C 1,3 C 84 % 19 % 997 hPa 0,0 l/m 0,0 km/h (0 Bft) 0 min
07.12.2020 06:51 22,4 C 2,2 C 1,4 C 84 % 19 % 997 hPa 0,0 l/m 0,4 km/h (0 Bft) 0 min
07.12.2020 06:54 22,4 C 2,2 C 1,4 C 84 % 19 % 997 hPa 0,0 l/m 0,0 km/h (0 Bft) 0 min
07.12.2020 06:57 22,4 C 2,2 C 1,4 C 84 % 19 % 997 hPa 0,0 l/m 0,0 km/h (0 Bft) 0 min
07.12.2020 07:00 22,4 C 2,2 C 1,4 C 84 % 19 % 997 hPa 0,0 l/m 0,3 km/h (0 Bft) 0 min
07.12.2020 07:03 22,4 C 2,2 C 1,5 C 84 % 19 % 997 hPa 0,0 l/m 0,9 km/h (0 Bft) 0 min
07.12.2020 07:06 22,4 C 2,2 C 1,4 C 84 % 19 % 997 hPa 0,0 l/m 0,0 km/h (0 Bft) 0 min
07.12.2020 07:09 22,4 C 2,2 C 1,4 C 84 % 19 % 997 hPa 0,0 l/m 0,0 km/h (0 Bft) 0 min
07.12.2020 07:12 22,4 C 2,2 C 1,4 C 84 % 19 % 997 hPa 0,0 l/m 0,0 km/h (0 Bft) 0 min
07.12.2020 07:15 22,4 C 2,2 C 1,4 C 84 % 19 % 997 hPa 0,0 l/m 0,0 km/h (0 Bft) 0 min
07.12.2020 07:18 22,4 C 2,2 C 1,3 C 84 % 19 % 997 hPa 0,0 l/m 0,0 km/h (0 Bft) 0 min
07.12.2020 07:21 22,4 C 2,2 C 1,4 C 84 % 19 % 997 hPa 0,0 l/m 0,0 km/h (0 Bft) 0 min
07.12.2020 07:24 22,4 C 2,2 C 1,4 C 84 % 19 % 997 hPa 0,0 l/m 0,0 km/h (0 Bft) 0 min
07.12.2020 07:27 22,4 C 2,2 C 1,4 C 84 % 19 % 997 hPa 0,0 l/m 0,0 km/h (0 Bft) 0 min
07.12.2020 07:30 22,4 C 2,2 C 1,4 C 84 % 19 % 997 hPa 0,0 l/m 0,0 km/h (0 Bft) 0 min
07.12.2020 07:33 22,4 C 2,2 C 1,3 C 84 % 19 % 997 hPa 0,0 l/m 0,0 km/h (0 Bft) 0 min
07.12.2020 07:36 22,4 C 2,2 C 1,4 C 84 % 19 % 997 hPa 0,0 l/m 0,0 km/h (0 Bft) 0 min
07.12.2020 07:39 22,4 C 2,2 C 1,4 C 84 % 19 % 997 hPa 0,0 l/m 0,0 km/h (0 Bft) 0 min
07.12.2020 07:42 22,4 C 2,2 C 1,4 C 84 % 19 % 998 hPa 0,0 l/m 0,0 km/h (0 Bft) 0 min
07.12.2020 07:45 22,4 C 2,2 C 1,5 C 84 % 19 % 998 hPa 0,0 l/m 0,0 km/h (0 Bft) 0 min
07.12.2020 07:48 22,4 C 2,2 C 1,4 C 84 % 19 % 998 hPa 0,0 l/m 0,0 km/h (0 Bft) 0 min
07.12.2020 07:51 22,3 C 2,2 C 1,4 C 84 % 19 % 998 hPa 0,0 l/m 0,0 km/h (0 Bft) 0 min
07.12.2020 07:54 22,3 C 2,3 C 1,4 C 84 % 19 % 998 hPa 0,0 l/m 0,6 km/h (0 Bft) 0 min
07.12.2020 07:57 22,3 C 2,2 C 1,5 C 84 % 19 % 998 hPa 0,0 l/m 0,0 km/h (0 Bft) 0 min
07.12.2020 08:00 22,3 C 2,2 C 1,4 C 84 % 19 % 998 hPa 0,0 l/m 0,0 km/h (0 Bft) 0 min
07.12.2020 08:03 22,3 C 2,3 C 1,4 C 84 % 19 % 998 hPa 0,0 l/m 0,0 km/h (0 Bft) 0 min
07.12.2020 08:06 22,3 C 2,3 C 1,4 C 84 % 19 % 998 hPa 0,0 l/m 0,0 km/h (0 Bft) 0 min
07.12.2020 08:09 22,4 C 2,3 C 1,5 C 84 % 19 % 998 hPa 0,0 l/m 0,0 km/h (0 Bft) 0 min
07.12.2020 08:12 22,3 C 2,3 C 1,5 C 84 % 19 % 998 hPa 0,0 l/m 0,0 km/h (0 Bft) 0 min
07.12.2020 08:15 22,3 C 2,3 C 1,5 C 84 % 19 % 998 hPa 0,0 l/m 0,0 km/h (0 Bft) 0 min
07.12.2020 08:18 22,3 C 2,3 C 1,5 C 84 % 19 % 998 hPa 0,0 l/m 0,0 km/h (0 Bft) 0 min
07.12.2020 08:21 22,3 C 2,3 C 1,5 C 83 % 19 % 998 hPa 0,0 l/m 0,0 km/h (0 Bft) 0 min
07.12.2020 08:24 22,3 C 2,4 C 1,5 C 83 % 19 % 998 hPa 0,0 l/m 0,0 km/h (0 Bft) 0 min
07.12.2020 08:27 22,3 C 2,4 C 1,5 C 84 % 19 % 998 hPa 0,0 l/m 0,0 km/h (0 Bft) 0 min
07.12.2020 08:30 22,3 C 2,4 C 1,5 C 83 % 19 % 998 hPa 0,0 l/m 0,0 km/h (0 Bft) 0 min
07.12.2020 08:33 22,3 C 2,4 C 1,5 C 83 % 19 % 998 hPa 0,0 l/m 0,0 km/h (0 Bft) 0 min
07.12.2020 08:36 22,3 C 2,4 C 1,6 C 83 % 19 % 998 hPa 0,0 l/m 0,0 km/h (0 Bft) 0 min
07.12.2020 08:39 22,3 C 2,5 C 1,6 C 83 % 19 % 998 hPa 0,0 l/m 0,0 km/h (0 Bft) 0 min
07.12.2020 08:42 22,3 C 2,5 C 1,6 C 83 % 19 % 998 hPa 0,0 l/m 0,0 km/h (0 Bft) 0 min
07.12.2020 08:45 22,2 C 2,5 C 1,6 C 83 % 19 % 998 hPa 0,0 l/m 0,0 km/h (0 Bft) 0 min
07.12.2020 08:48 22,2 C 2,5 C 1,6 C 83 % 19 % 998 hPa 0,0 l/m 0,0 km/h (0 Bft) 0 min
07.12.2020 08:51 22,2 C 2,6 C 1,6 C 84 % 19 % 998 hPa 0,0 l/m 0,0 km/h (0 Bft) 0 min
07.12.2020 08:54 22,2 C 2,6 C 1,6 C 84 % 19 % 999 hPa 0,0 l/m 0,0 km/h (0 Bft) 0 min
07.12.2020 08:57 22,2 C 2,6 C 1,6 C 84 % 19 % 999 hPa 0,0 l/m 0,0 km/h (0 Bft) 0 min
07.12.2020 09:00 22,2 C 2,7 C 1,6 C 84 % 19 % 999 hPa 0,0 l/m 0,0 km/h (0 Bft) 0 min
07.12.2020 09:03 22,2 C 2,7 C 1,6 C 84 % 19 % 999 hPa 0,0 l/m 0,0 km/h (0 Bft) 0 min
07.12.2020 09:06 22,2 C 2,7 C 1,7 C 84 % 19 % 999 hPa 0,0 l/m 0,0 km/h (0 Bft) 0 min
07.12.2020 09:09 22,2 C 2,7 C 1,6 C 84 % 19 % 999 hPa 0,0 l/m 0,0 km/h (0 Bft) 0 min
07.12.2020 09:12 22,2 C 2,7 C 1,7 C 84 % 19 % 999 hPa 0,0 l/m 0,0 km/h (0 Bft) 0 min
07.12.2020 09:15 22,3 C 2,7 C 1,7 C 83 % 19 % 999 hPa 0,0 l/m 0,1 km/h (0 Bft) 0 min
07.12.2020 09:18 22,3 C 2,7 C 1,7 C 84 % 19 % 999 hPa 0,0 l/m 0,2 km/h (0 Bft) 0 min
07.12.2020 09:21 22,3 C 2,8 C 1,7 C 83 % 19 % 999 hPa 0,0 l/m 0,2 km/h (0 Bft) 0 min
07.12.2020 09:24 22,2 C 2,8 C 1,7 C 83 % 19 % 999 hPa 0,0 l/m 0,0 km/h (0 Bft) 0 min
07.12.2020 09:27 22,2 C 2,8 C 1,7 C 83 % 19 % 999 hPa 0,0 l/m 0,6 km/h (0 Bft) 0 min
07.12.2020 09:30 22,2 C 2,9 C 1,7 C 83 % 19 % 999 hPa 0,0 l/m 3,3 km/h (1 Bft) 0 min
07.12.2020 09:33 22,2 C 3,0 C 1,8 C 83 % 19 % 999 hPa 0,0 l/m 3,3 km/h (1 Bft) 0 min
07.12.2020 09:36 22,3 C 3,1 C 1,8 C 83 % 19 % 999 hPa 0,0 l/m 0,0 km/h (0 Bft) 0 min
07.12.2020 09:39 22,2 C 3,1 C 1,8 C 83 % 19 % 999 hPa 0,0 l/m 0,6 km/h (0 Bft) 0 min
07.12.2020 09:42 22,2 C 3,1 C 1,9 C 83 % 19 % 999 hPa 0,0 l/m 0,3 km/h (0 Bft) 0 min
07.12.2020 09:45 22,2 C 3,2 C 1,9 C 83 % 19 % 999 hPa 0,0 l/m 0,8 km/h (0 Bft) 0 min
07.12.2020 09:48 22,2 C 3,2 C 2,0 C 83 % 19 % 999 hPa 0,0 l/m 0,1 km/h (0 Bft) 0 min
07.12.2020 09:51 22,3 C 3,3 C 1,9 C 83 % 19 % 999 hPa 0,0 l/m 0,3 km/h (0 Bft) 0 min
07.12.2020 09:54 22,2 C 3,3 C 1,9 C 83 % 19 % 999 hPa 0,0 l/m 0,0 km/h (0 Bft) 0 min
07.12.2020 09:57 22,2 C 3,3 C 1,9 C 83 % 19 % 999 hPa 0,0 l/m 1,0 km/h (0 Bft) 0 min
07.12.2020 10:00 22,2 C 3,3 C 2,0 C 83 % 19 % 999 hPa 0,0 l/m 2,6 km/h (1 Bft) 0 min
07.12.2020 10:03 22,2 C 3,4 C 2,0 C 83 % 19 % 999 hPa 0,0 l/m 2,5 km/h (1 Bft) 0 min
07.12.2020 10:06 22,2 C 3,5 C 2,0 C 83 % 19 % 999 hPa 0,0 l/m 2,5 km/h (1 Bft) 0 min
07.12.2020 10:09 22,2 C 3,5 C 2,1 C 83 % 19 % 999 hPa 0,0 l/m 0,6 km/h (0 Bft) 0 min
07.12.2020 10:12 22,2 C 3,5 C 2,1 C 83 % 19 % 999 hPa 0,0 l/m 0,5 km/h (0 Bft) 0 min
07.12.2020 10:15 22,2 C 3,5 C 2,1 C 83 % 19 % 999 hPa 0,0 l/m 0,3 km/h (0 Bft) 0 min
07.12.2020 10:18 22,2 C 3,6 C 2,1 C 83 % 19 % 999 hPa 0,0 l/m 2,1 km/h (1 Bft) 0 min
07.12.2020 10:21 22,2 C 3,5 C 2,1 C 83 % 19 % 999 hPa 0,0 l/m 0,0 km/h (0 Bft) 0 min
07.12.2020 10:24 22,2 C 3,6 C 2,1 C 83 % 19 % 999 hPa 0,0 l/m 0,0 km/h (0 Bft) 0 min
07.12.2020 10:27 22,2 C 3,6 C 2,1 C 83 % 19 % 999 hPa 0,0 l/m 0,0 km/h (0 Bft) 0 min
07.12.2020 10:30 22,2 C 3,6 C 2,1 C 83 % 19 % 999 hPa 0,0 l/m 0,1 km/h (0 Bft) 0 min
07.12.2020 10:33 22,2 C 3,6 C 2,1 C 83 % 19 % 999 hPa 0,0 l/m 0,1 km/h (0 Bft) 0 min
07.12.2020 10:36 22,2 C 3,6 C 2,1 C 83 % 19 % 999 hPa 0,0 l/m 0,0 km/h (0 Bft) 0 min
07.12.2020 10:39 22,3 C 3,7 C 2,2 C 83 % 19 % 999 hPa 0,0 l/m 0,3 km/h (0 Bft) 0 min
07.12.2020 10:42 22,2 C 3,6 C 2,2 C 83 % 19 % 999 hPa 0,0 l/m 0,6 km/h (0 Bft) 0 min
07.12.2020 10:45 22,2 C 3,7 C 2,2 C 83 % 19 % 999 hPa 0,0 l/m 0,3 km/h (0 Bft) 0 min
07.12.2020 10:48 22,2 C 3,7 C 2,2 C 83 % 19 % 999 hPa 0,0 l/m 2,8 km/h (1 Bft) 0 min
07.12.2020 10:51 22,2 C 3,7 C 2,2 C 83 % 19 % 999 hPa 0,0 l/m 2,5 km/h (1 Bft) 0 min
07.12.2020 10:54 22,2 C 3,7 C 2,2 C 83 % 19 % 999 hPa 0,0 l/m 0,4 km/h (0 Bft) 0 min
07.12.2020 10:57 22,2 C 3,7 C 2,2 C 83 % 19 % 999 hPa 0,0 l/m 2,2 km/h (1 Bft) 0 min
07.12.2020 11:00 22,2 C 3,7 C 2,3 C 83 % 19 % 999 hPa 0,0 l/m 4,5 km/h (1 Bft) 0 min
07.12.2020 11:03 22,2 C 3,8 C 2,3 C 83 % 19 % 999 hPa 0,0 l/m 3,7 km/h (1 Bft) 0 min
07.12.2020 11:06 22,2 C 3,8 C 2,3 C 83 % 19 % 999 hPa 0,0 l/m 0,1 km/h (0 Bft) 0 min
07.12.2020 11:09 22,2 C 3,8 C 2,3 C 82 % 19 % 999 hPa 0,0 l/m 1,7 km/h (1 Bft) 0 min
07.12.2020 11:12 22,2 C 3,8 C 2,3 C 82 % 19 % 999 hPa 0,0 l/m 3,5 km/h (1 Bft) 0 min
07.12.2020 11:15 22,2 C 3,8 C 2,3 C 82 % 19 % 999 hPa 0,0 l/m 3,5 km/h (1 Bft) 0 min
07.12.2020 11:18 22,2 C 3,8 C 2,3 C 82 % 19 % 999 hPa 0,0 l/m 0,2 km/h (0 Bft) 0 min
07.12.2020 11:21 22,1 C 3,8 C 2,3 C 82 % 19 % 999 hPa 0,0 l/m 2,4 km/h (1 Bft) 0 min
07.12.2020 11:24 22,2 C 3,9 C 2,3 C 82 % 19 % 999 hPa 0,0 l/m 2,4 km/h (1 Bft) 0 min
07.12.2020 11:27 22,1 C 3,9 C 2,3 C 82 % 19 % 999 hPa 0,0 l/m 0,0 km/h (0 Bft) 0 min
07.12.2020 11:30 22,1 C 3,9 C 2,3 C 82 % 19 % 999 hPa 0,0 l/m 2,4 km/h (1 Bft) 0 min
07.12.2020 11:33 22,2 C 3,9 C 2,4 C 82 % 19 % 999 hPa 0,0 l/m 0,4 km/h (0 Bft) 0 min
07.12.2020 11:36 22,1 C 3,9 C 2,4 C 82 % 19 % 999 hPa 0,0 l/m 0,4 km/h (0 Bft) 0 min
07.12.2020 11:39 22,1 C 3,9 C 2,3 C 82 % 19 % 999 hPa 0,0 l/m 3,6 km/h (1 Bft) 0 min
07.12.2020 11:42 22,1 C 3,9 C 2,3 C 82 % 19 % 999 hPa 0,0 l/m 1,1 km/h (1 Bft) 0 min
07.12.2020 11:45 22,1 C 3,9 C 2,3 C 82 % 19 % 999 hPa 0,0 l/m 1,8 km/h (1 Bft) 0 min
07.12.2020 11:48 22,1 C 4,0 C 2,4 C 82 % 19 % 999 hPa 0,0 l/m 1,5 km/h (1 Bft) 0 min
07.12.2020 11:51 22,1 C 3,9 C 2,4 C 82 % 19 % 999 hPa 0,0 l/m 0,3 km/h (0 Bft) 0 min
07.12.2020 11:54 22,1 C 3,9 C 2,4 C 81 % 19 % 999 hPa 0,0 l/m 0,4 km/h (0 Bft) 0 min
07.12.2020 11:57 22,1 C 3,9 C 2,4 C 81 % 19 % 999 hPa 0,0 l/m 3,5 km/h (1 Bft) 0 min
07.12.2020 12:00 22,1 C 3,9 C 2,4 C 81 % 19 % 999 hPa 0,0 l/m 2,4 km/h (1 Bft) 0 min
07.12.2020 12:03 22,1 C 3,9 C 2,4 C 81 % 19 % 999 hPa 0,0 l/m 0,4 km/h (0 Bft) 0 min
07.12.2020 12:06 22,1 C 4,0 C 2,4 C 81 % 19 % 999 hPa 0,0 l/m 0,2 km/h (0 Bft) 0 min
07.12.2020 12:09 22,1 C 4,0 C 2,5 C 81 % 19 % 999 hPa 0,0 l/m 0,7 km/h (0 Bft) 0 min
07.12.2020 12:12 22,1 C 4,0 C 2,5 C 81 % 19 % 999 hPa 0,0 l/m 4,6 km/h (1 Bft) 0 min
07.12.2020 12:15 22,1 C 4,0 C 2,4 C 80 % 19 % 999 hPa 0,0 l/m 3,4 km/h (1 Bft) 0 min
07.12.2020 12:18 22,1 C 3,9 C 2,5 C 80 % 19 % 999 hPa 0,0 l/m 3,5 km/h (1 Bft) 0 min
07.12.2020 12:21 22,2 C 4,0 C 2,5 C 80 % 19 % 999 hPa 0,0 l/m 4,1 km/h (1 Bft) 0 min
07.12.2020 12:24 22,2 C 3,9 C 2,5 C 80 % 19 % 999 hPa 0,0 l/m 2,7 km/h (1 Bft) 0 min
07.12.2020 12:27 22,2 C 4,0 C 2,5 C 80 % 19 % 999 hPa 0,0 l/m 5,8 km/h (2 Bft) 0 min
07.12.2020 12:30 22,1 C 4,0 C 2,5 C 79 % 19 % 999 hPa 0,0 l/m 3,2 km/h (1 Bft) 0 min
07.12.2020 12:33 22,2 C 4,0 C 2,5 C 79 % 19 % 999 hPa 0,0 l/m 1,0 km/h (0 Bft) 0 min
07.12.2020 12:36 22,1 C 4,1 C 2,5 C 80 % 19 % 999 hPa 0,0 l/m 3,0 km/h (1 Bft) 0 min
07.12.2020 12:39 22,1 C 4,1 C 2,5 C 79 % 19 % 999 hPa 0,0 l/m 3,0 km/h (1 Bft) 0 min
07.12.2020 12:42 22,1 C 4,1 C 2,5 C 79 % 19 % 999 hPa 0,0 l/m 2,8 km/h (1 Bft) 0 min
07.12.2020 12:45 22,2 C 4,1 C 2,5 C 79 % 19 % 999 hPa 0,0 l/m 4,4 km/h (1 Bft) 0 min
07.12.2020 12:48 22,1 C 4,1 C 2,5 C 79 % 19 % 999 hPa 0,0 l/m 4,8 km/h (1 Bft) 0 min
07.12.2020 12:51 22,1 C 4,1 C 2,5 C 79 % 19 % 999 hPa 0,0 l/m 3,1 km/h (1 Bft) 0 min
07.12.2020 12:54 22,1 C 4,1 C 2,6 C 79 % 19 % 999 hPa 0,0 l/m 3,5 km/h (1 Bft) 0 min
07.12.2020 12:57 22,1 C 4,2 C 2,6 C 79 % 19 % 999 hPa 0,0 l/m 5,7 km/h (1 Bft) 0 min
07.12.2020 13:00 22,1 C 4,2 C 2,6 C 79 % 19 % 999 hPa 0,0 l/m 0,4 km/h (0 Bft) 0 min
07.12.2020 13:03 22,1 C 4,2 C 2,6 C 78 % 19 % 999 hPa 0,0 l/m 0,1 km/h (0 Bft) 0 min
07.12.2020 13:06 22,0 C 4,1 C 2,6 C 78 % 19 % 999 hPa 0,0 l/m 0,1 km/h (0 Bft) 0 min
07.12.2020 13:09 22,1 C 4,2 C 2,6 C 78 % 19 % 999 hPa 0,0 l/m 0,3 km/h (0 Bft) 0 min
07.12.2020 13:12 22,1 C 4,2 C 2,6 C 77 % 19 % 999 hPa 0,0 l/m 5,6 km/h (1 Bft) 0 min
07.12.2020 13:15 22,1 C 4,2 C 2,5 C 77 % 19 % 999 hPa 0,0 l/m 0,0 km/h (0 Bft) 0 min
07.12.2020 13:18 22,1 C 4,2 C 2,5 C 77 % 19 % 999 hPa 0,0 l/m 0,0 km/h (0 Bft) 0 min
07.12.2020 13:21 22,1 C 4,2 C 2,6 C 77 % 19 % 999 hPa 0,0 l/m 0,0 km/h (0 Bft) 0 min
07.12.2020 13:24 22,1 C 4,2 C 2,7 C 76 % 19 % 999 hPa 0,0 l/m 0,0 km/h (0 Bft) 0 min
07.12.2020 13:27 22,0 C 4,2 C 2,6 C 77 % 19 % 999 hPa 0,0 l/m 0,0 km/h (0 Bft) 0 min
07.12.2020 13:30 22,0 C 4,2 C 2,6 C 77 % 19 % 999 hPa 0,0 l/m 0,0 km/h (0 Bft) 0 min
07.12.2020 13:33 22,1 C 4,2 C 2,6 C 76 % 19 % 999 hPa 0,0 l/m 0,0 km/h (0 Bft) 0 min
07.12.2020 13:36 21,8 C 4,2 C 2,6 C 77 % 19 % 999 hPa 0,0 l/m 0,5 km/h (0 Bft) 0 min
07.12.2020 13:39 21,8 C 4,3 C 2,6 C 77 % 19 % 999 hPa 0,0 l/m 4,2 km/h (1 Bft) 0 min
07.12.2020 13:42 20,8 C 4,3 C 2,6 C 77 % 19 % 999 hPa 0,0 l/m 3,4 km/h (1 Bft) 0 min
07.12.2020 13:45 20,5 C 4,3 C 2,6 C 77 % 19 % 999 hPa 0,0 l/m 2,8 km/h (1 Bft) 0 min
07.12.2020 13:48 20,2 C 4,3 C 2,6 C 77 % 19 % 999 hPa 0,0 l/m 2,1 km/h (1 Bft) 0 min
07.12.2020 13:51 20,2 C 4,3 C 2,7 C 77 % 19 % 999 hPa 0,0 l/m 4,5 km/h (1 Bft) 0 min
07.12.2020 13:54 20,5 C 4,3 C 2,7 C 77 % 19 % 999 hPa 0,0 l/m 0,3 km/h (0 Bft) 0 min
07.12.2020 13:57 20,9 C 4,3 C 2,7 C 77 % 19 % 999 hPa 0,0 l/m 0,0 km/h (0 Bft) 0 min
07.12.2020 14:00 21,1 C 4,3 C 2,7 C 77 % 19 % 999 hPa 0,0 l/m 3,0 km/h (1 Bft) 0 min
07.12.2020 14:03 21,2 C 4,3 C 2,7 C 77 % 19 % 999 hPa 0,0 l/m 7,9 km/h (2 Bft) 0 min
07.12.2020 14:06 21,3 C 4,3 C 2,6 C 77 % 19 % 999 hPa 0,0 l/m 4,9 km/h (1 Bft) 0 min
07.12.2020 14:09 21,4 C 4,3 C 2,6 C 77 % 19 % 999 hPa 0,0 l/m 0,3 km/h (0 Bft) 0 min
07.12.2020 14:12 21,5 C 4,3 C 2,7 C 77 % 19 % 999 hPa 0,0 l/m 0,0 km/h (0 Bft) 0 min
07.12.2020 14:15 21,5 C 4,3 C 2,7 C 77 % 19 % 999 hPa 0,0 l/m 0,3 km/h (0 Bft) 0 min
07.12.2020 14:18 21,6 C 4,4 C 2,7 C 77 % 19 % 999 hPa 0,0 l/m 5,2 km/h (1 Bft) 0 min
07.12.2020 14:21 21,6 C 4,4 C 2,7 C 77 % 19 % 999 hPa 0,0 l/m 1,8 km/h (1 Bft) 0 min
07.12.2020 14:24 21,6 C 4,3 C 2,7 C 77 % 19 % 999 hPa 0,0 l/m 0,5 km/h (0 Bft) 0 min
07.12.2020 14:27 21,6 C 4,3 C 2,7 C 77 % 19 % 999 hPa 0,0 l/m 0,0 km/h (0 Bft) 0 min
07.12.2020 14:30 21,7 C 4,2 C 2,7 C 76 % 19 % 999 hPa 0,0 l/m 0,0 km/h (0 Bft) 0 min
07.12.2020 14:33 21,7 C 4,2 C 2,7 C 77 % 19 % 999 hPa 0,0 l/m 0,0 km/h (0 Bft) 0 min
07.12.2020 14:36 21,7 C 4,3 C 2,7 C 77 % 19 % 999 hPa 0,0 l/m 1,3 km/h (1 Bft) 0 min
07.12.2020 14:39 21,7 C 4,3 C 2,7 C 77 % 19 % 999 hPa 0,0 l/m 1,3 km/h (1 Bft) 0 min
07.12.2020 14:42 21,8 C 4,3 C 2,7 C 77 % 19 % 999 hPa 0,0 l/m 0,1 km/h (0 Bft) 0 min
07.12.2020 14:45 21,8 C 4,3 C 2,7 C 77 % 19 % 999 hPa 0,0 l/m 2,6 km/h (1 Bft) 0 min
07.12.2020 14:48 21,8 C 4,3 C 2,7 C 77 % 19 % 999 hPa 0,0 l/m 0,8 km/h (0 Bft) 0 min
07.12.2020 14:51 21,8 C 4,3 C 2,6 C 77 % 19 % 999 hPa 0,0 l/m 1,0 km/h (0 Bft) 0 min
07.12.2020 14:54 21,8 C 4,3 C 2,6 C 77 % 19 % 999 hPa 0,0 l/m 0,0 km/h (0 Bft) 0 min
07.12.2020 14:57 21,9 C 4,3 C 2,6 C 77 % 19 % 999 hPa 0,0 l/m 0,1 km/h (0 Bft) 0 min
07.12.2020 15:00 21,9 C 4,3 C 2,6 C 77 % 19 % 999 hPa 0,0 l/m 1,0 km/h (0 Bft) 0 min
07.12.2020 15:03 21,9 C 4,3 C 2,6 C 77 % 19 % 999 hPa 0,0 l/m 0,4 km/h (0 Bft) 0 min
07.12.2020 15:06 21,9 C 4,3 C 2,6 C 77 % 19 % 999 hPa 0,0 l/m 0,0 km/h (0 Bft) 0 min
07.12.2020 15:09 21,9 C 4,3 C 2,6 C 77 % 19 % 999 hPa 0,0 l/m 0,0 km/h (0 Bft) 0 min
07.12.2020 15:12 21,9 C 4,2 C 2,5 C 77 % 19 % 999 hPa 0,0 l/m 0,0 km/h (0 Bft) 0 min
07.12.2020 15:15 22,0 C 4,1 C 2,5 C 77 % 19 % 999 hPa 0,0 l/m 0,0 km/h (0 Bft) 0 min
07.12.2020 15:18 22,0 C 4,1 C 2,5 C 77 % 19 % 999 hPa 0,0 l/m 0,0 km/h (0 Bft) 0 min
07.12.2020 15:21 22,0 C 4,1 C 2,5 C 77 % 19 % 999 hPa 0,0 l/m 0,0 km/h (0 Bft) 0 min
07.12.2020 15:24 22,0 C 3,9 C 2,6 C 77 % 19 % 999 hPa 0,0 l/m 0,0 km/h (0 Bft) 0 min
07.12.2020 15:27 22,0 C 3,9 C 2,5 C 77 % 19 % 999 hPa 0,0 l/m 0,0 km/h (0 Bft) 0 min
07.12.2020 15:30 22,0 C 3,9 C 2,5 C 77 % 19 % 999 hPa 0,0 l/m 0,0 km/h (0 Bft) 0 min
07.12.2020 15:33 22,0 C 3,9 C 2,5 C 77 % 19 % 999 hPa 0,0 l/m 0,0 km/h (0 Bft) 0 min
07.12.2020 15:36 22,0 C 3,9 C 2,5 C 78 % 19 % 999 hPa 0,0 l/m 0,0 km/h (0 Bft) 0 min
07.12.2020 15:39 22,0 C 3,9 C 2,5 C 78 % 19 % 999 hPa 0,0 l/m 0,0 km/h (0 Bft) 0 min
07.12.2020 15:42 22,0 C 3,9 C 2,5 C 78 % 19 % 999 hPa 0,0 l/m 0,0 km/h (0 Bft) 0 min
07.12.2020 15:45 22,0 C 3,9 C 2,5 C 78 % 19 % 999 hPa 0,0 l/m 0,3 km/h (0 Bft) 0 min
07.12.2020 15:48 22,0 C 3,9 C 2,5 C 78 % 19 % 999 hPa 0,0 l/m 3,7 km/h (1 Bft) 0 min
07.12.2020 15:51 22,0 C 3,8 C 2,5 C 78 % 19 % 999 hPa 0,0 l/m 0,9 km/h (0 Bft) 0 min
07.12.2020 15:54 22,0 C 3,8 C 2,5 C 78 % 19 % 999 hPa 0,0 l/m 0,0 km/h (0 Bft) 0 min
07.12.2020 15:57 22,0 C 3,7 C 2,4 C 78 % 19 % 999 hPa 0,0 l/m 1,3 km/h (1 Bft) 0 min
07.12.2020 16:00 22,0 C 3,7 C 2,4 C 78 % 19 % 999 hPa 0,0 l/m 2,4 km/h (1 Bft) 0 min
07.12.2020 16:03 22,0 C 3,5 C 2,4 C 78 % 19 % 999 hPa 0,0 l/m 0,3 km/h (0 Bft) 0 min
07.12.2020 16:06 22,0 C 3,5 C 2,3 C 78 % 19 % 999 hPa 0,0 l/m 0,1 km/h (0 Bft) 0 min
07.12.2020 16:09 22,0 C 3,5 C 2,3 C 78 % 19 % 999 hPa 0,0 l/m 0,6 km/h (0 Bft) 0 min
07.12.2020 16:12 22,0 C 3,3 C 2,3 C 78 % 19 % 999 hPa 0,0 l/m 0,9 km/h (0 Bft) 0 min
07.12.2020 16:15 22,0 C 3,2 C 2,2 C 78 % 19 % 999 hPa 0,0 l/m 0,3 km/h (0 Bft) 0 min
07.12.2020 16:18 22,0 C 3,2 C 2,2 C 78 % 19 % 999 hPa 0,0 l/m 0,0 km/h (0 Bft) 0 min
07.12.2020 16:21 22,0 C 3,1 C 2,1 C 78 % 19 % 999 hPa 0,0 l/m 0,9 km/h (0 Bft) 0 min
07.12.2020 16:24 22,0 C 3,1 C 2,0 C 79 % 19 % 999 hPa 0,0 l/m 1,2 km/h (1 Bft) 0 min
07.12.2020 16:27 22,0 C 3,0 C 2,0 C 79 % 19 % 999 hPa 0,0 l/m 1,2 km/h (1 Bft) 0 min
07.12.2020 16:30 22,0 C 3,0 C 2,0 C 79 % 19 % 999 hPa 0,0 l/m 0,4 km/h (0 Bft) 0 min
07.12.2020 16:33 22,0 C 2,7 C 2,0 C 79 % 19 % 999 hPa 0,0 l/m 0,0 km/h (0 Bft) 0 min
07.12.2020 16:36 22,0 C 2,6 C 2,0 C 79 % 19 % 999 hPa 0,0 l/m 0,0 km/h (0 Bft) 0 min
07.12.2020 16:39 22,0 C 2,5 C 1,9 C 79 % 19 % 999 hPa 0,0 l/m 0,0 km/h (0 Bft) 0 min
07.12.2020 16:42 22,0 C 2,4 C 1,8 C 79 % 19 % 999 hPa 0,0 l/m 0,0 km/h (0 Bft) 0 min
07.12.2020 16:45 22,0 C 2,4 C 1,6 C 79 % 19 % 999 hPa 0,0 l/m 0,0 km/h (0 Bft) 0 min
07.12.2020 16:48 22,0 C 2,2 C 1,6 C 80 % 19 % 999 hPa 0,0 l/m 0,1 km/h (0 Bft) 0 min
07.12.2020 16:51 22,0 C 2,1 C 1,5 C 80 % 19 % 999 hPa 0,0 l/m 1,2 km/h (1 Bft) 0 min
07.12.2020 16:54 22,0 C 2,0 C 1,6 C 81 % 19 % 999 hPa 0,0 l/m 1,2 km/h (1 Bft) 0 min
07.12.2020 16:57 22,0 C 1,9 C 1,4 C 81 % 19 % 999 hPa 0,0 l/m 0,0 km/h (0 Bft) 0 min
07.12.2020 17:00 22,0 C 1,8 C 1,4 C 81 % 19 % 999 hPa 0,0 l/m 0,0 km/h (0 Bft) 0 min
07.12.2020 17:03 22,0 C 1,7 C 1,4 C 81 % 19 % 999 hPa 0,0 l/m 0,1 km/h (0 Bft) 0 min
07.12.2020 17:06 22,0 C 1,6 C 1,3 C 81 % 19 % 999 hPa 0,0 l/m 0,2 km/h (0 Bft) 0 min
07.12.2020 17:09 22,0 C 1,5 C 1,3 C 81 % 19 % 999 hPa 0,0 l/m 1,1 km/h (1 Bft) 0 min
07.12.2020 17:12 22,0 C 1,5 C 1,3 C 81 % 19 % 999 hPa 0,0 l/m 0,1 km/h (0 Bft) 0 min
07.12.2020 17:15 22,0 C 1,3 C 1,3 C 81 % 19 % 999 hPa 0,0 l/m 0,0 km/h (0 Bft) 0 min
07.12.2020 17:18 22,0 C 1,3 C 1,3 C 81 % 19 % 999 hPa 0,0 l/m 0,0 km/h (0 Bft) 0 min
07.12.2020 17:21 22,0 C 1,2 C 1,2 C 82 % 19 % 999 hPa 0,0 l/m 0,0 km/h (0 Bft) 0 min
07.12.2020 17:24 22,0 C 1,2 C 1,3 C 82 % 19 % 999 hPa 0,0 l/m 0,0 km/h (0 Bft) 0 min
07.12.2020 17:27 22,1 C 1,1 C 0,9 C 82 % 19 % 999 hPa 0,0 l/m 0,0 km/h (0 Bft) 0 min
07.12.2020 17:30 22,1 C 1,0 C 1,1 C 82 % 19 % 999 hPa 0,0 l/m 0,0 km/h (0 Bft) 0 min
07.12.2020 17:33 22,1 C 1,0 C 1,0 C 82 % 19 % 999 hPa 0,0 l/m 0,0 km/h (0 Bft) 0 min
07.12.2020 17:36 22,1 C 0,8 C 1,0 C 83 % 19 % 999 hPa 0,0 l/m 0,0 km/h (0 Bft) 0 min
07.12.2020 17:39 22,1 C 0,7 C 0,7 C 83 % 19 % 999 hPa 0,0 l/m 0,0 km/h (0 Bft) 0 min
07.12.2020 17:42 22,1 C 0,6 C 0,3 C 83 % 19 % 999 hPa 0,0 l/m 0,0 km/h (0 Bft) 0 min
07.12.2020 17:45 22,1 C 0,5 C 0,4 C 83 % 19 % 999 hPa 0,0 l/m 0,0 km/h (0 Bft) 0 min
07.12.2020 17:48 22,1 C 0,5 C 0,5 C 83 % 19 % 999 hPa 0,0 l/m 0,0 km/h (0 Bft) 0 min
07.12.2020 17:51 22,1 C 0,3 C 0,3 C 83 % 19 % 999 hPa 0,0 l/m 0,0 km/h (0 Bft) 0 min
07.12.2020 17:54 22,1 C 0,3 C 0,5 C 83 % 19 % 999 hPa 0,0 l/m 0,0 km/h (0 Bft) 0 min
07.12.2020 17:57 22,1 C 0,2 C 0,3 C 84 % 19 % 999 hPa 0,0 l/m 0,0 km/h (0 Bft) 0 min
07.12.2020 18:00 22,1 C 0,2 C 0,5 C 84 % 19 % 999 hPa 0,0 l/m 0,0 km/h (0 Bft) 0 min
07.12.2020 18:03 22,1 C 0,1 C 0,5 C 84 % 19 % 999 hPa 0,0 l/m 0,0 km/h (0 Bft) 0 min
07.12.2020 18:06 22,1 C 0,1 C 0,4 C 84 % 19 % 999 hPa 0,0 l/m 0,0 km/h (0 Bft) 0 min
07.12.2020 18:09 22,1 C 0,1 C 0,2 C 84 % 19 % 999 hPa 0,0 l/m 0,0 km/h (0 Bft) 0 min
07.12.2020 18:12 22,1 C -0,2 C 0,2 C 84 % 19 % 999 hPa 0,0 l/m 0,0 km/h (0 Bft) 0 min
07.12.2020 18:15 22,2 C -0,2 C 0,3 C 84 % 19 % 999 hPa 0,0 l/m 0,0 km/h (0 Bft) 0 min
07.12.2020 18:18 22,1 C -0,3 C 0,1 C 84 % 19 % 999 hPa 0,0 l/m 0,0 km/h (0 Bft) 0 min
07.12.2020 18:21 22,1 C -0,4 C 0,2 C 84 % 19 % 999 hPa 0,0 l/m 0,7 km/h (0 Bft) 0 min
07.12.2020 18:24 22,2 C -0,4 C 0,3 C 84 % 19 % 999 hPa 0,0 l/m 0,0 km/h (0 Bft) 0 min
07.12.2020 18:27 22,1 C -0,4 C 0,3 C 84 % 19 % 999 hPa 0,0 l/m 0,0 km/h (0 Bft) 0 min
07.12.2020 18:30 22,1 C -0,5 C 0,1 C 84 % 19 % 999 hPa 0,0 l/m 0,0 km/h (0 Bft) 0 min
07.12.2020 18:33 22,2 C -0,5 C 0,2 C 84 % 19 % 999 hPa 0,0 l/m 0,0 km/h (0 Bft) 0 min
07.12.2020 18:36 22,2 C -0,5 C 0,0 C 84 % 19 % 999 hPa 0,0 l/m 0,0 km/h (0 Bft) 0 min
07.12.2020 18:39 22,2 C -0,6 C 0,0 C 84 % 19 % 999 hPa 0,0 l/m 0,0 km/h (0 Bft) 0 min
07.12.2020 18:42 22,2 C -0,7 C 0,0 C 85 % 19 % 999 hPa 0,0 l/m 0,0 km/h (0 Bft) 0 min
07.12.2020 18:45 22,1 C -0,7 C 0,0 C 85 % 19 % 999 hPa 0,0 l/m 0,0 km/h (0 Bft) 0 min
07.12.2020 18:48 22,1 C -0,8 C 0,0 C 85 % 19 % 999 hPa 0,0 l/m 0,0 km/h (0 Bft) 0 min
07.12.2020 18:51 22,2 C -0,8 C 0,0 C 85 % 19 % 999 hPa 0,0 l/m 0,0 km/h (0 Bft) 0 min
07.12.2020 18:54 22,1 C -0,8 C 0,0 C 85 % 19 % 999 hPa 0,0 l/m 0,0 km/h (0 Bft) 0 min
07.12.2020 18:57 22,1 C -0,8 C 0,0 C 85 % 19 % 999 hPa 0,0 l/m 0,0 km/h (0 Bft) 0 min
07.12.2020 19:00 22,2 C -0,8 C -0,2 C 85 % 19 % 999 hPa 0,0 l/m 0,0 km/h (0 Bft) 0 min
07.12.2020 19:03 22,1 C -0,7 C -0,2 C 85 % 19 % 999 hPa 0,0 l/m 0,0 km/h (0 Bft) 0 min
07.12.2020 19:06 22,1 C -0,6 C 0,0 C 85 % 19 % 999 hPa 0,0 l/m 0,0 km/h (0 Bft) 0 min
07.12.2020 19:09 22,2 C -0,6 C 0,0 C 85 % 19 % 999 hPa 0,0 l/m 0,0 km/h (0 Bft) 0 min
07.12.2020 19:12 22,1 C -0,6 C 0,1 C 85 % 19 % 999 hPa 0,0 l/m 0,0 km/h (0 Bft) 0 min
07.12.2020 19:15 22,1 C -0,6 C 0,2 C 85 % 19 % 999 hPa 0,0 l/m 0,0 km/h (0 Bft) 0 min
07.12.2020 19:18 22,2 C -0,6 C 0,1 C 85 % 19 % 999 hPa 0,0 l/m 0,0 km/h (0 Bft) 0 min
07.12.2020 19:21 22,2 C -0,6 C 0,1 C 85 % 19 % 999 hPa 0,0 l/m 1,0 km/h (0 Bft) 0 min
07.12.2020 19:24 22,1 C -0,6 C 0,1 C 85 % 19 % 999 hPa 0,0 l/m 0,0 km/h (0 Bft) 0 min
07.12.2020 19:27 22,1 C -0,5 C 0,1 C 85 % 19 % 999 hPa 0,0 l/m 0,7 km/h (0 Bft) 0 min
07.12.2020 19:30 22,1 C -0,5 C 0,2 C 85 % 19 % 999 hPa 0,0 l/m 0,4 km/h (0 Bft) 0 min
07.12.2020 19:33 22,1 C -0,3 C 0,2 C 85 % 19 % 999 hPa 0,0 l/m 0,1 km/h (0 Bft) 0 min
07.12.2020 19:36 22,1 C -0,3 C 0,3 C 85 % 19 % 999 hPa 0,0 l/m 3,1 km/h (1 Bft) 0 min
07.12.2020 19:39 22,1 C -0,3 C 0,2 C 85 % 19 % 999 hPa 0,0 l/m 0,3 km/h (0 Bft) 0 min
07.12.2020 19:42 22,1 C -0,3 C 0,2 C 85 % 19 % 999 hPa 0,0 l/m 0,0 km/h (0 Bft) 0 min
07.12.2020 19:45 22,2 C -0,3 C 0,1 C 85 % 19 % 999 hPa 0,0 l/m 0,0 km/h (0 Bft) 0 min
07.12.2020 19:48 22,2 C -0,3 C 0,1 C 85 % 19 % 999 hPa 0,0 l/m 0,0 km/h (0 Bft) 0 min
07.12.2020 19:51 22,2 C -0,2 C 0,1 C 85 % 19 % 998 hPa 0,0 l/m 0,0 km/h (0 Bft) 0 min
07.12.2020 19:54 22,2 C -0,2 C 0,2 C 85 % 19 % 998 hPa 0,0 l/m 0,0 km/h (0 Bft) 0 min
07.12.2020 19:57 22,2 C -0,4 C 0,0 C 85 % 19 % 998 hPa 0,0 l/m 1,5 km/h (1 Bft) 0 min
07.12.2020 20:00 22,2 C -0,5 C -0,1 C 85 % 19 % 999 hPa 0,0 l/m 3,4 km/h (1 Bft) 0 min
07.12.2020 20:03 22,2 C -0,6 C -0,1 C 85 % 19 % 999 hPa 0,0 l/m 2,4 km/h (1 Bft) 0 min
07.12.2020 20:06 22,2 C -0,5 C 0,0 C 85 % 19 % 999 hPa 0,0 l/m 2,8 km/h (1 Bft) 0 min
07.12.2020 20:09 22,2 C -0,4 C 0,2 C 85 % 19 % 999 hPa 0,0 l/m 2,1 km/h (1 Bft) 0 min
07.12.2020 20:12 22,2 C -0,5 C 0,1 C 85 % 19 % 999 hPa 0,0 l/m 0,0 km/h (0 Bft) 0 min
07.12.2020 20:15 22,2 C -0,6 C 0,0 C 85 % 19 % 999 hPa 0,0 l/m 0,6 km/h (0 Bft) 0 min
07.12.2020 20:18 22,2 C -0,6 C 0,1 C 85 % 19 % 999 hPa 0,0 l/m 0,0 km/h (0 Bft) 0 min
07.12.2020 20:21 22,2 C -0,6 C -0,2 C 85 % 19 % 999 hPa 0,0 l/m 0,0 km/h (0 Bft) 0 min
07.12.2020 20:24 22,2 C -0,7 C -0,5 C 85 % 19 % 999 hPa 0,0 l/m 0,3 km/h (0 Bft) 0 min
07.12.2020 20:27 22,2 C -0,7 C -0,5 C 85 % 19 % 999 hPa 0,0 l/m 0,1 km/h (0 Bft) 0 min
07.12.2020 20:30 22,2 C -0,8 C -0,3 C 85 % 19 % 999 hPa 0,0 l/m 0,0 km/h (0 Bft) 0 min
07.12.2020 20:33 22,2 C -0,8 C -0,2 C 85 % 19 % 999 hPa 0,0 l/m 0,3 km/h (0 Bft) 0 min
07.12.2020 20:36 22,2 C -0,9 C -0,4 C 85 % 19 % 999 hPa 0,0 l/m 0,0 km/h (0 Bft) 0 min
07.12.2020 20:39 22,1 C -1,0 C -0,2 C 85 % 19 % 999 hPa 0,0 l/m 0,0 km/h (0 Bft) 0 min
07.12.2020 20:42 22,1 C -1,0 C -0,2 C 85 % 19 % 999 hPa 0,0 l/m 0,8 km/h (0 Bft) 0 min
07.12.2020 20:45 22,1 C -1,1 C -0,4 C 85 % 19 % 999 hPa 0,0 l/m 0,6 km/h (0 Bft) 0 min
07.12.2020 20:48 22,1 C -1,1 C -0,3 C 85 % 19 % 999 hPa 0,0 l/m 0,1 km/h (0 Bft) 0 min
07.12.2020 20:51 22,1 C -1,0 C -0,3 C 85 % 19 % 999 hPa 0,0 l/m 1,6 km/h (1 Bft) 0 min
07.12.2020 20:54 22,1 C -1,0 C -0,1 C 85 % 19 % 999 hPa 0,0 l/m 0,4 km/h (0 Bft) 0 min
07.12.2020 20:57 22,1 C -1,0 C -0,1 C 85 % 19 % 999 hPa 0,0 l/m 0,0 km/h (0 Bft) 0 min
07.12.2020 21:00 22,1 C -1,1 C -0,1 C 85 % 19 % 999 hPa 0,0 l/m 0,0 km/h (0 Bft) 0 min
07.12.2020 21:03 22,1 C -1,1 C -0,2 C 85 % 19 % 999 hPa 0,0 l/m 0,0 km/h (0 Bft) 0 min
07.12.2020 21:06 22,1 C -1,1 C -0,4 C 85 % 19 % 999 hPa 0,0 l/m 0,1 km/h (0 Bft) 0 min
07.12.2020 21:09 22,1 C -1,1 C -0,2 C 85 % 19 % 999 hPa 0,0 l/m 0,0 km/h (0 Bft) 0 min
07.12.2020 21:12 22,1 C -1,1 C -0,4 C 85 % 19 % 999 hPa 0,0 l/m 0,1 km/h (0 Bft) 0 min
07.12.2020 21:15 22,1 C -1,2 C -0,4 C 85 % 19 % 999 hPa 0,0 l/m 0,4 km/h (0 Bft) 0 min
07.12.2020 21:18 22,1 C -1,2 C -0,4 C 85 % 19 % 999 hPa 0,0 l/m 0,0 km/h (0 Bft) 0 min
07.12.2020 21:21 22,1 C -1,2 C -0,5 C 85 % 19 % 999 hPa 0,0 l/m 0,0 km/h (0 Bft) 0 min
07.12.2020 21:24 22,1 C -1,2 C -0,5 C 85 % 19 % 999 hPa 0,0 l/m 0,0 km/h (0 Bft) 0 min
07.12.2020 21:27 22,1 C -1,3 C -0,6 C 85 % 19 % 999 hPa 0,0 l/m 0,0 km/h (0 Bft) 0 min
07.12.2020 21:30 22,1 C -1,4 C -0,4 C 85 % 19 % 999 hPa 0,0 l/m 0,0 km/h (0 Bft) 0 min
07.12.2020 21:33 22,1 C -1,4 C -0,3 C 85 % 19 % 999 hPa 0,0 l/m 0,0 km/h (0 Bft) 0 min
07.12.2020 21:36 22,1 C -1,4 C -0,4 C 85 % 19 % 999 hPa 0,0 l/m 0,0 km/h (0 Bft) 0 min
07.12.2020 21:39 22,1 C -1,5 C -0,4 C 85 % 19 % 999 hPa 0,0 l/m 0,3 km/h (0 Bft) 0 min
07.12.2020 21:42 22,0 C -1,5 C -0,5 C 86 % 19 % 999 hPa 0,0 l/m 0,0 km/h (0 Bft) 0 min
07.12.2020 21:45 22,1 C -1,5 C -0,5 C 85 % 19 % 999 hPa 0,0 l/m 0,0 km/h (0 Bft) 0 min
07.12.2020 21:48 22,1 C -1,5 C -0,8 C 85 % 19 % 999 hPa 0,0 l/m 0,0 km/h (0 Bft) 0 min
07.12.2020 21:51 22,1 C -1,6 C -0,8 C 86 % 19 % 999 hPa 0,0 l/m 0,0 km/h (0 Bft) 0 min
07.12.2020 21:54 22,1 C -1,6 C -0,9 C 86 % 19 % 999 hPa 0,0 l/m 0,0 km/h (0 Bft) 0 min
07.12.2020 21:57 22,0 C -1,8 C -0,9 C 86 % 19 % 999 hPa 0,0 l/m 0,0 km/h (0 Bft) 0 min
07.12.2020 22:00 22,0 C -1,8 C -1,1 C 86 % 19 % 999 hPa 0,0 l/m 0,0 km/h (0 Bft) 0 min
07.12.2020 22:03 22,0 C -1,8 C -0,9 C 86 % 19 % 999 hPa 0,0 l/m 0,1 km/h (0 Bft) 0 min
07.12.2020 22:06 22,0 C -1,8 C -1,2 C 86 % 19 % 999 hPa 0,0 l/m 0,0 km/h (0 Bft) 0 min
07.12.2020 22:09 22,0 C -1,8 C -1,2 C 86 % 19 % 999 hPa 0,0 l/m 0,0 km/h (0 Bft) 0 min
07.12.2020 22:12 22,0 C -1,9 C -1,1 C 86 % 19 % 999 hPa 0,0 l/m 0,0 km/h (0 Bft) 0 min
07.12.2020 22:15 22,0 C -1,9 C -1,2 C 86 % 19 % 999 hPa 0,0 l/m 0,0 km/h (0 Bft) 0 min
07.12.2020 22:18 22,0 C -1,9 C -1,7 C 86 % 19 % 999 hPa 0,0 l/m 0,0 km/h (0 Bft) 0 min
07.12.2020 22:21 22,0 C -2,0 C -1,2 C 86 % 19 % 999 hPa 0,0 l/m 0,0 km/h (0 Bft) 0 min
07.12.2020 22:24 22,0 C -2,0 C -1,2 C 86 % 19 % 999 hPa 0,0 l/m 0,0 km/h (0 Bft) 0 min
07.12.2020 22:27 22,0 C -2,2 C -1,5 C 86 % 19 % 999 hPa 0,0 l/m 0,0 km/h (0 Bft) 0 min
07.12.2020 22:30 22,0 C -2,2 C -1,4 C 86 % 19 % 999 hPa 0,0 l/m 0,0 km/h (0 Bft) 0 min
07.12.2020 22:33 22,0 C -2,1 C -1,6 C 86 % 19 % 999 hPa 0,0 l/m 0,0 km/h (0 Bft) 0 min
07.12.2020 22:36 22,0 C -2,1 C -1,3 C 86 % 19 % 999 hPa 0,0 l/m 0,0 km/h (0 Bft) 0 min
07.12.2020 22:39 22,0 C -2,1 C -1,6 C 86 % 19 % 999 hPa 0,0 l/m 1,0 km/h (0 Bft) 0 min
07.12.2020 22:42 22,0 C -2,1 C -1,3 C 86 % 19 % 999 hPa 0,0 l/m 0,2 km/h (0 Bft) 0 min
07.12.2020 22:45 22,0 C -2,2 C -1,4 C 86 % 19 % 999 hPa 0,0 l/m 0,0 km/h (0 Bft) 0 min
07.12.2020 22:48 22,0 C -2,2 C -1,4 C 86 % 19 % 999 hPa 0,0 l/m 0,1 km/h (0 Bft) 0 min
07.12.2020 22:51 22,0 C -2,3 C -1,4 C 86 % 19 % 999 hPa 0,0 l/m 0,1 km/h (0 Bft) 0 min
07.12.2020 22:54 22,0 C -2,3 C -1,2 C 86 % 19 % 999 hPa 0,0 l/m 0,1 km/h (0 Bft) 0 min
07.12.2020 22:57 22,0 C -2,2 C -1,6 C 86 % 19 % 999 hPa 0,0 l/m 0,0 km/h (0 Bft) 0 min
07.12.2020 23:00 22,0 C -2,2 C -1,3 C 86 % 19 % 999 hPa 0,0 l/m 0,0 km/h (0 Bft) 0 min
07.12.2020 23:03 22,0 C -2,2 C -1,1 C 86 % 19 % 999 hPa 0,0 l/m 0,0 km/h (0 Bft) 0 min
07.12.2020 23:06 22,0 C -2,3 C -1,3 C 86 % 19 % 999 hPa 0,0 l/m 0,0 km/h (0 Bft) 0 min
07.12.2020 23:09 22,0 C -2,3 C -1,2 C 86 % 19 % 999 hPa 0,0 l/m 0,0 km/h (0 Bft) 0 min
07.12.2020 23:12 22,0 C -2,3 C -1,4 C 86 % 19 % 999 hPa 0,0 l/m 1,3 km/h (1 Bft) 0 min
07.12.2020 23:15 22,0 C -2,3 C -1,2 C 86 % 19 % 999 hPa 0,0 l/m 0,0 km/h (0 Bft) 0 min
07.12.2020 23:18 22,0 C -2,3 C -1,3 C 86 % 19 % 999 hPa 0,0 l/m 0,0 km/h (0 Bft) 0 min
07.12.2020 23:21 22,0 C -2,3 C -1,3 C 86 % 19 % 999 hPa 0,0 l/m 0,5 km/h (0 Bft) 0 min
07.12.2020 23:24 21,9 C -2,3 C -1,3 C 86 % 19 % 999 hPa 0,0 l/m 1,6 km/h (1 Bft) 0 min
07.12.2020 23:27 21,9 C -2,3 C -1,2 C 86 % 19 % 999 hPa 0,0 l/m 0,0 km/h (0 Bft) 0 min
07.12.2020 23:30 21,9 C -2,3 C -1,5 C 86 % 19 % 999 hPa 0,0 l/m 2,7 km/h (1 Bft) 0 min
07.12.2020 23:33 21,9 C -2,2 C -1,2 C 86 % 19 % 998 hPa 0,0 l/m 0,1 km/h (0 Bft) 0 min
07.12.2020 23:36 21,9 C -2,2 C -1,4 C 86 % 19 % 998 hPa 0,0 l/m 0,8 km/h (0 Bft) 0 min
07.12.2020 23:39 21,9 C -2,2 C -1,4 C 86 % 19 % 998 hPa 0,0 l/m 0,0 km/h (0 Bft) 0 min
07.12.2020 23:42 21,9 C -2,3 C -1,8 C 86 % 19 % 998 hPa 0,0 l/m 0,0 km/h (0 Bft) 0 min
07.12.2020 23:45 21,9 C -2,3 C -1,4 C 86 % 19 % 998 hPa 0,0 l/m 0,0 km/h (0 Bft) 0 min
07.12.2020 23:48 21,9 C -2,3 C -1,5 C 86 % 19 % 998 hPa 0,0 l/m 0,0 km/h (0 Bft) 0 min
07.12.2020 23:51 21,9 C -2,4 C -1,4 C 86 % 19 % 998 hPa 0,0 l/m 0,0 km/h (0 Bft) 0 min
07.12.2020 23:54 21,9 C -2,4 C -1,8 C 86 % 19 % 998 hPa 0,0 l/m 0,0 km/h (0 Bft) 0 min
07.12.2020 23:57 21,9 C -2,4 C -1,7 C 86 % 19 % 998 hPa 0,0 l/m 0,0 km/h (0 Bft) 0 min
_ Min-Zeit 13:48 23:51 23:42 13:24 - 00:00 - 01:24 -
Minimum _ 20,2 C -2,4 C -1,8 C 76 % - 993 hPa - 0,0 km/h (0 Bft) -
_ Max-Zeit 00:00 14:18 13:24 21:42 00:00 08:54 00:00 14:03 00:00
Maximum _ 23,0 C 4,4 C 2,7 C 86 % 19 % 999 hPa 0,0 l/m 7,9 km/h
SO (2 Bft)
0 min
Durchschnitt _ 22,2 C 1,8 C 1,2 C 83 % #1:39 h 998 hPa #0,0 l/m 0,8 km/h (0 Bft) #0 min.